Plattsburgh, NY

9:19 PM EDT on August 31, 2016 (GMT -0400)
Plattsburgh International

Weather History for KPBG - June, 2013

Change the Weather History Date:

Friday, June 28, 2013

  Actual Average Record
Temperature  
Mean Temperature 66 °F 67 °F  
Max Temperature 74 °F 78 °F 95 °F (1991)
Min Temperature 57 °F 56 °F 43 °F (1988)
Degree Days  
Heating Degree Days 0 1  
Month to date heating degree days 83  
Since 1 June heating degree days 83  
Since 1 July heating degree days 7710  
Cooling Degree Days 1 3  
Month to date cooling degree days 52 54  
Year to date cooling degree days 72 62  
Since 1 June cooling degree days 52 54  
Growing Degree Days 15 (Base 50)    
Moisture  
Dew Point 59 °F    
Average Humidity 81    
Maximum Humidity 100    
Minimum Humidity 61    
Precipitation  
Precipitation 1.15 in - 1.23 in (2016)
Month to date precipitation 7.81  
Year to date precipitation 17.00  
Sea Level Pressure  
Sea Level Pressure 29.51 in    
Wind  
Wind Speed 9 mph (North)    
Max Wind Speed 20 mph    
Max Gust Speed 25 mph    
Visibility 6 miles    
Events Rain    
T = Trace of Precipitation, MM = Missing Value Source: NWS Daily Summary

Daily Weather History Graph

Daily Weather History Graph

Search for Another Location

Airport or City:

Trip Planner

Search our weather history database for the weather conditions in past years. The results will help you decide how hot, cold, wet, or windy it might be!

Date:

Astronomy

Jun. 28, 2013 Rise Set
Actual Time 5:10 AM EDT 8:43 PM EDT
Civil Twilight 4:34 AM EDT 9:20 PM EDT
Nautical Twilight 3:45 AM EDT 10:08 PM EDT
Astronomical Twilight 2:41 AM EDT 11:12 PM EDT
Moon 11:53 PM EDT (6/28) 11:31 AM EDT (6/28)
Length of Visible Light 16h 46m
Length of Day
15h 32m
Waning Gibbous, 66% of the Moon is Illuminated
Jun 28
Waning Gibbous
Jun 30
Last Quarter
Jul 8
New
Jul 15
First Quarter
Jul 22
Full

Hourly Weather History & Observations

Time (EDT) Temp. Dew Point Humidity Pressure Visibility Wind Dir Wind Speed Gust Speed Precip Events Conditions
12:53 AM 62.1 °F 59.0 °F 90% 29.70 in 10.0 mi North 12.7 mph - 0.06 in Rain Light Rain
1:21 AM 60.8 °F 59.0 °F 94% 29.70 in 10.0 mi North 11.5 mph - 0.01 in Rain Light Rain
1:40 AM 60.8 °F 57.2 °F 88% 29.70 in 10.0 mi North 11.5 mph - 0.01 in   Overcast
1:50 AM 59.0 °F 57.2 °F 94% 29.70 in 10.0 mi North 15.0 mph - 0.01 in   Overcast
1:53 AM 59.0 °F 57.0 °F 93% 29.69 in 10.0 mi North 15.0 mph - 0.01 in   Overcast
2:53 AM 57.9 °F 55.9 °F 93% 29.66 in 10.0 mi North 11.5 mph - 0.00 in Rain Light Rain
3:11 AM 57.2 °F 55.4 °F 94% 29.66 in 10.0 mi North 12.7 mph - 0.00 in Rain Light Rain
3:53 AM 57.0 °F 55.9 °F 96% 29.63 in 9.0 mi North 12.7 mph - 0.03 in Rain Light Rain
4:53 AM 57.0 °F 55.0 °F 93% 29.60 in 8.0 mi North 12.7 mph - 0.08 in Rain Light Rain
5:53 AM 57.0 °F 55.0 °F 93% 29.58 in 6.0 mi North 15.0 mph - 0.09 in Rain Rain
6:23 AM 57.2 °F 55.4 °F 94% 29.57 in 5.0 mi North 16.1 mph 21.9 mph 0.04 in Rain Rain
6:53 AM 57.9 °F 55.9 °F 93% 29.55 in 6.0 mi North 16.1 mph - 0.09 in Rain Light Rain
7:00 AM 57.2 °F 55.4 °F 94% 29.55 in 3.0 mi North 15.0 mph - 0.02 in Rain Rain
7:09 AM 57.2 °F 57.2 °F 100% 29.54 in 2.5 mi North 16.1 mph - 0.05 in Rain Rain
7:13 AM 57.2 °F 57.2 °F 100% 29.54 in 1.8 mi North 15.0 mph - 0.08 in Rain Heavy Rain
7:21 AM 57.2 °F 57.2 °F 100% 29.53 in 2.0 mi North 17.3 mph 23.0 mph 0.11 in Rain Rain
7:31 AM 57.2 °F 57.2 °F 100% 29.53 in 4.0 mi North 15.0 mph 24.2 mph 0.12 in Rain Light Rain
7:45 AM 57.2 °F 57.2 °F 100% 29.52 in 1.8 mi North 15.0 mph - 0.18 in Rain Heavy Rain
7:53 AM 57.9 °F 57.0 °F 97% 29.52 in 1.2 mi North 15.0 mph - 0.27 in Rain Heavy Rain
8:31 AM 59.0 °F 57.2 °F 94% 29.49 in 2.5 mi North 16.1 mph - 0.22 in Rain Light Rain
8:53 AM 59.0 °F 57.9 °F 96% 29.47 in 1.8 mi North 12.7 mph - 0.27 in Rain Heavy Rain
9:04 AM 60.8 °F 59.0 °F 94% 29.47 in 3.0 mi North 17.3 mph - 0.02 in Rain Light Rain
9:17 AM 60.8 °F 59.0 °F 94% 29.46 in 1.8 mi North 15.0 mph - 0.03 in Rain Light Rain
9:31 AM 60.8 °F 60.8 °F 100% 29.45 in 2.5 mi North 15.0 mph - 0.04 in Rain Light Rain
9:38 AM 60.8 °F 60.8 °F 100% 29.45 in 3.0 mi NNE 15.0 mph - 0.04 in Rain Light Rain
9:48 AM 60.8 °F 60.8 °F 100% 29.44 in 1.8 mi North 13.8 mph - 0.05 in Rain Light Rain
9:49 AM 61.0 °F 60.1 °F 97% 29.44 in 1.8 mi North 13.8 mph - 0.05 in Rain Light Rain
10:15 AM 62.6 °F 62.6 °F 100% 29.43 in 2.0 mi North 13.8 mph - 0.02 in Rain Light Rain
10:26 AM 62.6 °F 62.6 °F 100% 29.43 in 1.8 mi North 11.5 mph - 0.03 in Rain Light Rain
10:53 AM 64.0 °F 63.0 °F 96% 29.41 in 1.5 mi NNE 10.4 mph - 0.07 in Rain Light Rain
11:53 AM 64.0 °F 63.0 °F 96% 29.40 in 1.2 mi NE 8.1 mph - 0.10 in Rain Rain
12:06 PM 64.4 °F 62.6 °F 94% 29.39 in 1.5 mi ENE 4.6 mph - 0.04 in Rain Rain
12:48 PM 64.4 °F 64.4 °F 100% 29.38 in 2.0 mi East 5.8 mph - 0.09 in Rain Light Rain
12:53 PM 64.9 °F 64.0 °F 97% 29.38 in 3.0 mi Variable 4.6 mph - 0.09 in Rain Light Rain
1:40 PM 69.8 °F 64.4 °F 83% 29.40 in 10.0 mi South 4.6 mph - 0.00 in   Mostly Cloudy
1:53 PM 72.0 °F 64.9 °F 78% 29.40 in 10.0 mi South 8.1 mph - 0.00 in   Mostly Cloudy
2:53 PM 72.0 °F 63.0 °F 73% 29.41 in 10.0 mi West 10.4 mph 16.1 mph N/A   Mostly Cloudy
3:06 PM 73.4 °F 62.6 °F 69% 29.41 in 10.0 mi Variable 6.9 mph 18.4 mph N/A   Scattered Clouds
3:53 PM 72.0 °F 60.1 °F 66% 29.43 in 10.0 mi West 13.8 mph 25.3 mph N/A   Scattered Clouds
4:53 PM 70.0 °F 57.9 °F 65% 29.45 in 10.0 mi WSW 10.4 mph 18.4 mph N/A   Partly Cloudy
5:53 PM 71.1 °F 57.9 °F 63% 29.46 in 10.0 mi Variable 3.5 mph - N/A   Clear
6:53 PM 70.0 °F 57.9 °F 65% 29.47 in 10.0 mi Variable 4.6 mph - N/A   Partly Cloudy
7:53 PM 68.0 °F 57.0 °F 68% 29.48 in 10.0 mi Variable 5.8 mph - N/A   Clear
8:53 PM 63.0 °F 57.9 °F 84% 29.49 in 10.0 mi Calm Calm - N/A   Scattered Clouds
9:53 PM 61.0 °F 59.0 °F 93% 29.50 in 10.0 mi NW 3.5 mph - N/A   Scattered Clouds
10:53 PM 61.0 °F 59.0 °F 93% 29.49 in 10.0 mi Calm Calm - N/A   Scattered Clouds
11:53 PM 61.0 °F 57.9 °F 90% 29.49 in 10.0 mi Calm Calm - N/A   Partly Cloudy